Location: Derby
(52.9213°N, 1.4761°W)
Time: 01:12:01
(UTC+01:00)

Vanguard 2 Rocket - Pass Details

Date: 27 May 2025
Orbit: 554 x 3293 km, 32.9° (Epoch: 12 June)

Event Time Altitude Azimuth Distance (km) Brightness Sun altitude
Rises 03:07:23 0° 268° (W) 6,889 11.1 -11.0°
Reaches altitude 10° 03:14:14 10° 254° (WSW) 5,448 10.4 -10.5°
Maximum altitude 03:23:20 19° 218° (SW) 3,981 9.5 -9.8°
Drops below altitude 10° 03:30:13 10° 178° (S) 3,953 9.7 -9.2°
Sets 03:34:05 0° 161° (SSE) 4,491 10.1 -8.9°
